Information on these data can be found in provided Readme document
Contact Info: Zachary Fasnacht (zachary.fasnacht@ssaihq.com); Nickolay Krotkov (nickolay.a.krotkov@nasa.gov); Lok Lamsal (lok.lamsal@nasa.gov)

FillValue: -999.
ScaleFactor: 1e15
Units: molecules/cm^2

Date(yyyy-mm-dd),City,Country,LonCenter,LatCenter,BoundingCoordinates,Median,Q1,Q3,Mean,Baseline_Median,Baseline_Q1,Baseline_Q3,Baseline_Mean,NumGoodSamples,NumTotalSamples
2015-01-01,Jacksonville,USA,-81.6557,30.3322,[-82.1557 29.8322 -81.1557 30.8322],2.498,1.491,3.688,2.41,1.703,0.92,2.748,1.758,120.0,557.0
2015-01-02,Jacksonville,USA,-81.6557,30.3322,[-82.1557 29.8322 -81.1557 30.8322],2.473,1.535,3.682,2.419,1.559,0.848,2.841,1.78,128.0,536.0
2015-01-03,Jacksonville,USA,-81.6557,30.3322,[-82.1557 29.8322 -81.1557 30.8322],2.358,0.973,3.629,2.068,1.385,0.598,2.676,1.583,98.0,544.0
2015-01-04,Jacksonville,USA,-81.6557,30.3322,[-82.1557 29.8322 -81.1557 30.8322],2.358,0.973,3.629,2.068,1.47,0.605,2.789,1.655,98.0,538.0
2015-01-05,Jacksonville,USA,-81.6557,30.3322,[-82.1557 29.8322 -81.1557 30.8322],2.139,-0.116,3.534,1.723,1.403,0.479,2.744,1.595,79.0,554.0
2015-01-06,Jacksonville,USA,-81.6557,30.3322,[-82.1557 29.8322 -81.1557 30.8322],1.625,-0.453,2.708,1.38,1.342,0.44,2.571,1.53,63.0,545.0
2015-01-07,Jacksonville,USA,-81.6557,30.3322,[-82.1557 29.8322 -81.1557 30.8322],1.625,-0.453,2.708,1.38,1.263,0.433,2.616,1.536,63.0,552.0
2015-01-08,Jacksonville,USA,-81.6557,30.3322,[-82.1557 29.8322 -81.1557 30.8322],1.625,-0.453,2.708,1.38,1.233,0.435,2.615,1.525,63.0,554.0
2015-01-09,Jacksonville,USA,-81.6557,30.3322,[-82.1557 29.8322 -81.1557 30.8322],1.625,-0.453,2.708,1.38,1.343,0.502,2.681,1.632,63.0,513.0
2015-01-10,Jacksonville,USA,-81.6557,30.3322,[-82.1557 29.8322 -81.1557 30.8322],1.625,-0.453,2.708,1.38,1.448,0.515,2.68,1.677,63.0,521.0
2015-01-11,Jacksonville,USA,-81.6557,30.3322,[-82.1557 29.8322 -81.1557 30.8322],1.745,0.937,2.445,1.561,1.612,0.701,2.729,1.791,94.0,506.0
2015-01-12,Jacksonville,USA,-81.6557,30.3322,[-82.1557 29.8322 -81.1557 30.8322],1.745,0.937,2.445,1.561,1.969,0.888,3.011,2.078,94.0,517.0
2015-01-13,Jacksonville,USA,-81.6557,30.3322,[-82.1557 29.8322 -81.1557 30.8322],1.935,1.117,2.748,1.777,1.906,0.977,2.981,2.025,90.0,513.0
2015-01-14,Jacksonville,USA,-81.6557,30.3322,[-82.1557 29.8322 -81.1557 30.8322],1.848,1.037,2.708,1.694,2.149,1.167,3.279,2.231,121.0,525.0
2015-01-15,Jacksonville,USA,-81.6557,30.3322,[-82.1557 29.8322 -81.1557 30.8322],1.935,1.117,2.881,1.918,2.178,1.145,3.285,2.288,97.0,522.0
2015-01-16,Jacksonville,USA,-81.6557,30.3322,[-82.1557 29.8322 -81.1557 30.8322],1.935,1.117,2.881,1.918,2.18,1.146,3.335,2.296,97.0,517.0
2015-01-17,Jacksonville,USA,-81.6557,30.3322,[-82.1557 29.8322 -81.1557 30.8322],1.924,1.117,2.88,1.86,2.332,1.163,3.345,2.36,89.0,529.0
2015-01-18,Jacksonville,USA,-81.6557,30.3322,[-82.1557 29.8322 -81.1557 30.8322],1.96,1.117,2.921,2.012,2.27,1.172,3.276,2.341,108.0,507.0
2015-01-19,Jacksonville,USA,-81.6557,30.3322,[-82.1557 29.8322 -81.1557 30.8322],1.96,1.117,2.921,2.012,2.29,1.16,3.271,2.334,108.0,513.0
2015-01-20,Jacksonville,USA,-81.6557,30.3322,[-82.1557 29.8322 -81.1557 30.8322],2.521,1.48,3.338,2.388,2.499,1.299,3.434,2.463,141.0,507.0
2015-01-21,Jacksonville,USA,-81.6557,30.3322,[-82.1557 29.8322 -81.1557 30.8322],2.521,1.48,3.338,2.386,2.545,1.389,3.49,2.519,142.0,524.0
2015-01-22,Jacksonville,USA,-81.6557,30.3322,[-82.1557 29.8322 -81.1557 30.8322],2.578,1.581,3.495,2.514,2.565,1.429,3.557,2.56,166.0,517.0
2015-01-23,Jacksonville,USA,-81.6557,30.3322,[-82.1557 29.8322 -81.1557 30.8322],2.525,1.48,3.454,2.444,2.531,1.502,3.563,2.571,195.0,526.0
2015-01-24,Jacksonville,USA,-81.6557,30.3322,[-82.1557 29.8322 -81.1557 30.8322],2.525,1.48,3.454,2.444,2.689,1.597,3.671,2.657,195.0,553.0
2015-01-25,Jacksonville,USA,-81.6557,30.3322,[-82.1557 29.8322 -81.1557 30.8322],2.559,1.459,3.495,2.459,2.714,1.668,3.649,2.675,213.0,539.0
2015-01-26,Jacksonville,USA,-81.6557,30.3322,[-82.1557 29.8322 -81.1557 30.8322],2.947,1.67,3.714,2.672,2.76,1.611,3.66,2.655,182.0,550.0
2015-01-27,Jacksonville,USA,-81.6557,30.3322,[-82.1557 29.8322 -81.1557 30.8322],2.855,1.712,3.655,2.638,2.517,1.582,3.475,2.486,195.0,535.0
2015-01-28,Jacksonville,USA,-81.6557,30.3322,[-82.1557 29.8322 -81.1557 30.8322],2.947,1.866,3.885,2.704,2.52,1.62,3.531,2.495,168.0,547.0
2015-01-29,Jacksonville,USA,-81.6557,30.3322,[-82.1557 29.8322 -81.1557 30.8322],2.988,2.072,3.896,2.887,2.565,1.634,3.56,2.549,164.0,543.0
2015-01-30,Jacksonville,USA,-81.6557,30.3322,[-82.1557 29.8322 -81.1557 30.8322],2.979,2.024,3.904,2.862,2.57,1.59,3.534,2.533,197.0,554.0
2015-01-31,Jacksonville,USA,-81.6557,30.3322,[-82.1557 29.8322 -81.1557 30.8322],2.979,2.024,3.904,2.862,2.592,1.571,3.57,2.552,197.0,550.0
2015-02-01,Jacksonville,USA,-81.6557,30.3322,[-82.1557 29.8322 -81.1557 30.8322],2.825,1.892,3.885,2.773,2.566,1.591,3.561,2.554,221.0,545.0
2015-02-02,Jacksonville,USA,-81.6557,30.3322,[-82.1557 29.8322 -81.1557 30.8322],2.825,1.892,3.904,2.772,2.677,1.664,3.681,2.641,202.0,559.0
2015-02-03,Jacksonville,USA,-81.6557,30.3322,[-82.1557 29.8322 -81.1557 30.8322],2.821,1.892,3.896,2.759,2.652,1.671,3.608,2.612,205.0,538.0
2015-02-04,Jacksonville,USA,-81.6557,30.3322,[-82.1557 29.8322 -81.1557 30.8322],2.513,1.496,3.857,2.573,2.513,1.444,3.511,2.486,172.0,546.0
2015-02-05,Jacksonville,USA,-81.6557,30.3322,[-82.1557 29.8322 -81.1557 30.8322],2.901,2.004,4.447,3.028,2.647,1.62,3.719,2.648,203.0,540.0
2015-02-06,Jacksonville,USA,-81.6557,30.3322,[-82.1557 29.8322 -81.1557 30.8322],2.796,1.892,4.413,2.968,2.568,1.522,3.647,2.568,179.0,557.0
2015-02-07,Jacksonville,USA,-81.6557,30.3322,[-82.1557 29.8322 -81.1557 30.8322],3.166,2.172,4.533,3.187,2.683,1.597,3.709,2.623,174.0,548.0
2015-02-08,Jacksonville,USA,-81.6557,30.3322,[-82.1557 29.8322 -81.1557 30.8322],2.972,2.108,4.413,3.107,2.544,1.534,3.628,2.544,203.0,556.0
2015-02-09,Jacksonville,USA,-81.6557,30.3322,[-82.1557 29.8322 -81.1557 30.8322],3.027,2.158,4.533,3.154,2.522,1.472,3.664,2.515,185.0,555.0
2015-02-10,Jacksonville,USA,-81.6557,30.3322,[-82.1557 29.8322 -81.1557 30.8322],3.027,2.158,4.533,3.154,2.543,1.564,3.725,2.573,185.0,511.0
2015-02-11,Jacksonville,USA,-81.6557,30.3322,[-82.1557 29.8322 -81.1557 30.8322],3.478,2.182,4.539,3.265,2.631,1.538,3.667,2.551,172.0,523.0
2015-02-12,Jacksonville,USA,-81.6557,30.3322,[-82.1557 29.8322 -81.1557 30.8322],2.711,1.621,4.178,2.831,2.456,1.412,3.651,2.479,202.0,508.0
2015-02-13,Jacksonville,USA,-81.6557,30.3322,[-82.1557 29.8322 -81.1557 30.8322],2.537,1.621,4.363,2.799,2.422,1.408,3.691,2.476,175.0,518.0
2015-02-14,Jacksonville,USA,-81.6557,30.3322,[-82.1557 29.8322 -81.1557 30.8322],2.032,0.974,3.997,2.339,2.312,1.256,3.64,2.386,160.0,514.0
2015-02-15,Jacksonville,USA,-81.6557,30.3322,[-82.1557 29.8322 -81.1557 30.8322],1.969,0.949,3.997,2.275,2.256,1.243,3.635,2.335,176.0,528.0
2015-02-16,Jacksonville,USA,-81.6557,30.3322,[-82.1557 29.8322 -81.1557 30.8322],2.004,0.949,4.062,2.329,2.248,1.196,3.567,2.307,152.0,522.0
2015-02-17,Jacksonville,USA,-81.6557,30.3322,[-82.1557 29.8322 -81.1557 30.8322],2.004,0.949,4.062,2.329,2.178,1.179,3.439,2.245,152.0,517.0
2015-02-18,Jacksonville,USA,-81.6557,30.3322,[-82.1557 29.8322 -81.1557 30.8322],2.032,0.949,4.062,2.336,2.128,1.172,3.448,2.242,149.0,529.0
2015-02-19,Jacksonville,USA,-81.6557,30.3322,[-82.1557 29.8322 -81.1557 30.8322],1.935,0.863,3.997,2.239,2.141,1.239,3.482,2.279,162.0,505.0
2015-02-20,Jacksonville,USA,-81.6557,30.3322,[-82.1557 29.8322 -81.1557 30.8322],1.415,0.218,2.421,1.474,1.999,1.078,3.039,2.074,130.0,513.0
2015-02-21,Jacksonville,USA,-81.6557,30.3322,[-82.1557 29.8322 -81.1557 30.8322],1.415,0.218,2.421,1.474,2.011,1.102,3.081,2.1,130.0,506.0
2015-02-22,Jacksonville,USA,-81.6557,30.3322,[-82.1557 29.8322 -81.1557 30.8322],0.996,0.154,1.729,1.018,1.926,1.099,2.991,2.026,106.0,524.0
2015-02-23,Jacksonville,USA,-81.6557,30.3322,[-82.1557 29.8322 -81.1557 30.8322],0.974,0.073,1.727,0.857,1.898,1.065,3.002,1.984,89.0,519.0
2015-02-24,Jacksonville,USA,-81.6557,30.3322,[-82.1557 29.8322 -81.1557 30.8322],0.983,0.073,1.729,0.921,1.867,1.017,2.852,1.913,117.0,529.0
2015-02-25,Jacksonville,USA,-81.6557,30.3322,[-82.1557 29.8322 -81.1557 30.8322],0.983,0.073,1.729,0.921,1.783,0.955,2.72,1.809,117.0,558.0
2015-02-26,Jacksonville,USA,-81.6557,30.3322,[-82.1557 29.8322 -81.1557 30.8322],1.071,0.152,1.888,1.011,1.735,0.913,2.686,1.774,136.0,540.0
2015-02-27,Jacksonville,USA,-81.6557,30.3322,[-82.1557 29.8322 -81.1557 30.8322],0.764,0.008,1.832,0.787,1.722,0.941,2.653,1.762,106.0,549.0
2015-02-28,Jacksonville,USA,-81.6557,30.3322,[-82.1557 29.8322 -81.1557 30.8322],1.284,0.154,2.234,1.204,1.681,0.788,2.548,1.659,134.0,534.0
2015-03-01,Jacksonville,USA,-81.6557,30.3322,[-82.1557 29.8322 -81.1557 30.8322],1.819,0.873,2.37,1.533,1.811,1.042,2.644,1.784,116.0,545.0
2015-03-02,Jacksonville,USA,-81.6557,30.3322,[-82.1557 29.8322 -81.1557 30.8322],1.971,0.929,2.647,1.82,1.853,1.051,2.731,1.841,122.0,541.0
2015-03-03,Jacksonville,USA,-81.6557,30.3322,[-82.1557 29.8322 -81.1557 30.8322],1.83,0.929,2.647,1.779,1.72,0.969,2.579,1.749,153.0,557.0
2015-03-04,Jacksonville,USA,-81.6557,30.3322,[-82.1557 29.8322 -81.1557 30.8322],1.83,0.929,2.647,1.779,1.745,0.934,2.64,1.754,153.0,553.0
2015-03-05,Jacksonville,USA,-81.6557,30.3322,[-82.1557 29.8322 -81.1557 30.8322],1.83,0.929,2.647,1.79,1.695,0.933,2.581,1.731,157.0,548.0
2015-03-06,Jacksonville,USA,-81.6557,30.3322,[-82.1557 29.8322 -81.1557 30.8322],1.962,0.931,2.698,1.872,1.63,0.859,2.573,1.671,144.0,561.0
2015-03-07,Jacksonville,USA,-81.6557,30.3322,[-82.1557 29.8322 -81.1557 30.8322],1.83,0.929,2.647,1.838,1.604,0.834,2.511,1.646,151.0,540.0
2015-03-08,Jacksonville,USA,-81.6557,30.3322,[-82.1557 29.8322 -81.1557 30.8322],1.83,0.929,2.647,1.838,1.692,0.922,2.695,1.736,151.0,548.0
2015-03-09,Jacksonville,USA,-81.6557,30.3322,[-82.1557 29.8322 -81.1557 30.8322],2.068,1.071,2.741,1.978,1.764,0.938,2.66,1.765,183.0,542.0
2015-03-10,Jacksonville,USA,-81.6557,30.3322,[-82.1557 29.8322 -81.1557 30.8322],2.164,1.169,2.77,2.051,1.87,1.051,2.74,1.877,172.0,558.0
2015-03-11,Jacksonville,USA,-81.6557,30.3322,[-82.1557 29.8322 -81.1557 30.8322],2.202,1.284,2.789,2.131,1.924,1.138,2.748,1.945,146.0,549.0
2015-03-12,Jacksonville,USA,-81.6557,30.3322,[-82.1557 29.8322 -81.1557 30.8322],2.202,1.284,2.789,2.148,1.974,1.184,2.82,2.009,150.0,557.0
2015-03-13,Jacksonville,USA,-81.6557,30.3322,[-82.1557 29.8322 -81.1557 30.8322],2.317,1.44,2.883,2.207,1.975,1.219,2.879,2.04,131.0,560.0
2015-03-14,Jacksonville,USA,-81.6557,30.3322,[-82.1557 29.8322 -81.1557 30.8322],2.317,1.44,2.883,2.207,2.04,1.286,2.972,2.089,131.0,517.0
2015-03-15,Jacksonville,USA,-81.6557,30.3322,[-82.1557 29.8322 -81.1557 30.8322],2.393,1.18,2.908,2.284,2.11,1.243,3.001,2.158,103.0,529.0
2015-03-16,Jacksonville,USA,-81.6557,30.3322,[-82.1557 29.8322 -81.1557 30.8322],2.393,1.18,2.908,2.284,2.074,1.22,2.962,2.117,103.0,514.0
2015-03-17,Jacksonville,USA,-81.6557,30.3322,[-82.1557 29.8322 -81.1557 30.8322],2.317,1.405,2.789,2.194,2.028,1.262,2.985,2.086,81.0,525.0
2015-03-18,Jacksonville,USA,-81.6557,30.3322,[-82.1557 29.8322 -81.1557 30.8322],2.336,1.451,2.789,2.199,2.204,1.35,3.045,2.174,64.0,519.0
2015-03-19,Jacksonville,USA,-81.6557,30.3322,[-82.1557 29.8322 -81.1557 30.8322],2.336,1.524,2.789,2.239,2.188,1.334,2.971,2.177,66.0,531.0
2015-03-20,Jacksonville,USA,-81.6557,30.3322,[-82.1557 29.8322 -81.1557 30.8322],2.336,1.524,2.789,2.227,2.215,1.373,3.069,2.241,62.0,525.0
2015-03-21,Jacksonville,USA,-81.6557,30.3322,[-82.1557 29.8322 -81.1557 30.8322],2.199,1.382,2.741,2.147,2.231,1.422,3.113,2.283,90.0,519.0
2015-03-22,Jacksonville,USA,-81.6557,30.3322,[-82.1557 29.8322 -81.1557 30.8322],2.217,1.642,2.741,2.218,2.232,1.441,3.11,2.283,83.0,529.0
2015-03-23,Jacksonville,USA,-81.6557,30.3322,[-82.1557 29.8322 -81.1557 30.8322],2.176,1.493,2.741,2.18,2.153,1.373,3.035,2.213,97.0,508.0
2015-03-24,Jacksonville,USA,-81.6557,30.3322,[-82.1557 29.8322 -81.1557 30.8322],1.851,1.169,2.684,1.963,2.134,1.288,3.062,2.181,65.0,513.0
2015-03-25,Jacksonville,USA,-81.6557,30.3322,[-82.1557 29.8322 -81.1557 30.8322],2.153,1.642,2.709,2.175,2.07,1.312,2.937,2.149,85.0,507.0
2015-03-26,Jacksonville,USA,-81.6557,30.3322,[-82.1557 29.8322 -81.1557 30.8322],2.144,1.493,2.705,2.137,1.973,1.239,2.827,2.1,99.0,525.0
2015-03-27,Jacksonville,USA,-81.6557,30.3322,[-82.1557 29.8322 -81.1557 30.8322],2.318,1.679,2.709,2.214,1.995,1.24,2.792,2.068,117.0,515.0
2015-03-28,Jacksonville,USA,-81.6557,30.3322,[-82.1557 29.8322 -81.1557 30.8322],2.265,1.642,2.709,2.179,1.952,1.256,2.777,2.074,133.0,523.0
2015-03-29,Jacksonville,USA,-81.6557,30.3322,[-82.1557 29.8322 -81.1557 30.8322],2.265,1.642,2.709,2.177,1.938,1.235,2.712,2.04,137.0,556.0
2015-03-30,Jacksonville,USA,-81.6557,30.3322,[-82.1557 29.8322 -81.1557 30.8322],2.153,1.479,2.684,2.117,1.921,1.185,2.652,1.975,151.0,538.0
2015-03-31,Jacksonville,USA,-81.6557,30.3322,[-82.1557 29.8322 -81.1557 30.8322],2.153,1.479,2.684,2.117,1.912,1.177,2.665,1.974,151.0,549.0
2015-04-01,Jacksonville,USA,-81.6557,30.3322,[-82.1557 29.8322 -81.1557 30.8322],2.318,1.73,2.788,2.221,1.975,1.289,2.731,2.041,182.0,534.0
2015-04-02,Jacksonville,USA,-81.6557,30.3322,[-82.1557 29.8322 -81.1557 30.8322],2.336,1.747,2.816,2.295,2.016,1.304,2.764,2.09,168.0,545.0
2015-04-03,Jacksonville,USA,-81.6557,30.3322,[-82.1557 29.8322 -81.1557 30.8322],2.528,1.884,3.16,2.478,2.036,1.374,2.824,2.12,187.0,541.0
2015-04-04,Jacksonville,USA,-81.6557,30.3322,[-82.1557 29.8322 -81.1557 30.8322],2.528,1.884,3.16,2.477,2.086,1.396,2.831,2.122,190.0,556.0
2015-04-05,Jacksonville,USA,-81.6557,30.3322,[-82.1557 29.8322 -81.1557 30.8322],2.544,1.985,3.201,2.542,1.992,1.348,2.753,2.068,162.0,552.0
2015-04-06,Jacksonville,USA,-81.6557,30.3322,[-82.1557 29.8322 -81.1557 30.8322],2.544,1.953,3.201,2.533,1.966,1.355,2.708,2.048,164.0,545.0
2015-04-07,Jacksonville,USA,-81.6557,30.3322,[-82.1557 29.8322 -81.1557 30.8322],2.546,2.038,3.201,2.56,1.983,1.4,2.709,2.067,165.0,554.0
2015-04-08,Jacksonville,USA,-81.6557,30.3322,[-82.1557 29.8322 -81.1557 30.8322],2.546,2.038,3.201,2.56,2.044,1.427,2.706,2.107,168.0,535.0
2015-04-09,Jacksonville,USA,-81.6557,30.3322,[-82.1557 29.8322 -81.1557 30.8322],2.569,2.0,3.211,2.564,1.952,1.359,2.599,2.025,147.0,543.0
2015-04-10,Jacksonville,USA,-81.6557,30.3322,[-82.1557 29.8322 -81.1557 30.8322],2.574,2.038,3.231,2.575,1.979,1.384,2.683,2.049,131.0,537.0
2015-04-11,Jacksonville,USA,-81.6557,30.3322,[-82.1557 29.8322 -81.1557 30.8322],2.561,1.92,3.231,2.559,2.005,1.399,2.655,2.052,132.0,556.0
2015-04-12,Jacksonville,USA,-81.6557,30.3322,[-82.1557 29.8322 -81.1557 30.8322],2.734,2.038,3.231,2.614,2.029,1.436,2.647,2.048,118.0,544.0
2015-04-13,Jacksonville,USA,-81.6557,30.3322,[-82.1557 29.8322 -81.1557 30.8322],2.734,2.038,3.231,2.623,2.152,1.487,2.742,2.145,114.0,548.0
2015-04-14,Jacksonville,USA,-81.6557,30.3322,[-82.1557 29.8322 -81.1557 30.8322],2.75,2.217,3.406,2.733,2.184,1.534,2.837,2.201,127.0,551.0
2015-04-15,Jacksonville,USA,-81.6557,30.3322,[-82.1557 29.8322 -81.1557 30.8322],2.75,2.217,3.406,2.733,2.168,1.571,2.82,2.203,127.0,507.0
2015-04-16,Jacksonville,USA,-81.6557,30.3322,[-82.1557 29.8322 -81.1557 30.8322],3.174,2.246,3.519,2.903,2.152,1.479,2.781,2.152,96.0,517.0
2015-04-17,Jacksonville,USA,-81.6557,30.3322,[-82.1557 29.8322 -81.1557 30.8322],2.75,2.003,3.477,2.613,2.152,1.491,2.803,2.152,125.0,502.0
2015-04-18,Jacksonville,USA,-81.6557,30.3322,[-82.1557 29.8322 -81.1557 30.8322],2.361,1.729,2.959,2.301,2.164,1.479,2.886,2.227,104.0,513.0
2015-04-19,Jacksonville,USA,-81.6557,30.3322,[-82.1557 29.8322 -81.1557 30.8322],2.159,1.612,2.799,2.155,2.1,1.451,2.818,2.187,132.0,509.0
2015-04-20,Jacksonville,USA,-81.6557,30.3322,[-82.1557 29.8322 -81.1557 30.8322],2.159,1.612,2.799,2.155,2.099,1.434,2.856,2.196,132.0,524.0
2015-04-21,Jacksonville,USA,-81.6557,30.3322,[-82.1557 29.8322 -81.1557 30.8322],2.159,1.613,2.799,2.164,2.138,1.437,2.896,2.217,130.0,524.0
2015-04-22,Jacksonville,USA,-81.6557,30.3322,[-82.1557 29.8322 -81.1557 30.8322],2.159,1.604,2.799,2.167,2.13,1.377,2.865,2.168,133.0,522.0
2015-04-23,Jacksonville,USA,-81.6557,30.3322,[-82.1557 29.8322 -81.1557 30.8322],2.169,1.604,2.799,2.157,2.088,1.317,2.793,2.126,150.0,531.0
2015-04-24,Jacksonville,USA,-81.6557,30.3322,[-82.1557 29.8322 -81.1557 30.8322],2.196,1.651,2.799,2.205,2.244,1.451,2.964,2.246,169.0,508.0
2015-04-25,Jacksonville,USA,-81.6557,30.3322,[-82.1557 29.8322 -81.1557 30.8322],2.196,1.651,2.799,2.205,2.214,1.43,2.954,2.228,169.0,516.0
2015-04-26,Jacksonville,USA,-81.6557,30.3322,[-82.1557 29.8322 -81.1557 30.8322],2.435,1.827,2.908,2.324,2.294,1.476,3.0,2.276,174.0,508.0
2015-04-27,Jacksonville,USA,-81.6557,30.3322,[-82.1557 29.8322 -81.1557 30.8322],2.435,1.777,2.908,2.311,2.331,1.537,3.029,2.307,195.0,529.0
2015-04-28,Jacksonville,USA,-81.6557,30.3322,[-82.1557 29.8322 -81.1557 30.8322],2.435,1.827,2.877,2.306,2.211,1.463,2.937,2.239,200.0,521.0
2015-04-29,Jacksonville,USA,-81.6557,30.3322,[-82.1557 29.8322 -81.1557 30.8322],2.371,1.777,2.872,2.272,2.285,1.53,3.022,2.304,175.0,527.0
2015-04-30,Jacksonville,USA,-81.6557,30.3322,[-82.1557 29.8322 -81.1557 30.8322],2.371,1.827,2.877,2.297,2.367,1.535,3.065,2.332,203.0,557.0
2015-05-01,Jacksonville,USA,-81.6557,30.3322,[-82.1557 29.8322 -81.1557 30.8322],2.371,1.825,2.873,2.295,2.4,1.649,3.071,2.366,222.0,540.0
2015-05-02,Jacksonville,USA,-81.6557,30.3322,[-82.1557 29.8322 -81.1557 30.8322],2.374,1.854,2.872,2.323,2.372,1.599,3.066,2.35,193.0,550.0
2015-05-03,Jacksonville,USA,-81.6557,30.3322,[-82.1557 29.8322 -81.1557 30.8322],2.604,1.993,3.154,2.568,2.351,1.526,3.036,2.31,222.0,534.0
2015-05-04,Jacksonville,USA,-81.6557,30.3322,[-82.1557 29.8322 -81.1557 30.8322],2.85,2.287,3.41,2.741,2.357,1.549,3.057,2.318,191.0,545.0
2015-05-05,Jacksonville,USA,-81.6557,30.3322,[-82.1557 29.8322 -81.1557 30.8322],2.869,2.392,3.475,2.854,2.408,1.666,3.096,2.386,217.0,543.0
2015-05-06,Jacksonville,USA,-81.6557,30.3322,[-82.1557 29.8322 -81.1557 30.8322],2.832,2.283,3.422,2.781,2.416,1.689,3.122,2.407,248.0,555.0
2015-05-07,Jacksonville,USA,-81.6557,30.3322,[-82.1557 29.8322 -81.1557 30.8322],2.796,2.261,3.422,2.742,2.442,1.801,3.129,2.456,241.0,550.0
2015-05-08,Jacksonville,USA,-81.6557,30.3322,[-82.1557 29.8322 -81.1557 30.8322],2.832,2.234,3.422,2.734,2.531,1.872,3.114,2.498,226.0,549.0
2015-05-09,Jacksonville,USA,-81.6557,30.3322,[-82.1557 29.8322 -81.1557 30.8322],2.832,2.131,3.424,2.721,2.45,1.819,3.064,2.454,230.0,560.0
2015-05-10,Jacksonville,USA,-81.6557,30.3322,[-82.1557 29.8322 -81.1557 30.8322],2.738,1.912,3.41,2.595,2.45,1.809,3.07,2.458,249.0,535.0
2015-05-11,Jacksonville,USA,-81.6557,30.3322,[-82.1557 29.8322 -81.1557 30.8322],2.654,1.681,3.528,2.552,2.417,1.77,3.058,2.429,221.0,545.0
2015-05-12,Jacksonville,USA,-81.6557,30.3322,[-82.1557 29.8322 -81.1557 30.8322],2.654,1.809,3.482,2.577,2.381,1.756,3.041,2.404,217.0,534.0
2015-05-13,Jacksonville,USA,-81.6557,30.3322,[-82.1557 29.8322 -81.1557 30.8322],2.671,1.789,3.482,2.589,2.392,1.749,3.041,2.403,236.0,552.0
2015-05-14,Jacksonville,USA,-81.6557,30.3322,[-82.1557 29.8322 -81.1557 30.8322],2.782,1.912,3.523,2.66,2.344,1.721,2.969,2.335,261.0,545.0
2015-05-15,Jacksonville,USA,-81.6557,30.3322,[-82.1557 29.8322 -81.1557 30.8322],2.796,1.905,3.624,2.678,2.296,1.693,2.962,2.312,259.0,552.0
2015-05-16,Jacksonville,USA,-81.6557,30.3322,[-82.1557 29.8322 -81.1557 30.8322],2.796,1.84,3.613,2.675,2.255,1.622,2.89,2.252,253.0,556.0
2015-05-17,Jacksonville,USA,-81.6557,30.3322,[-82.1557 29.8322 -81.1557 30.8322],2.796,1.84,3.613,2.675,2.289,1.67,2.918,2.278,253.0,513.0
2015-05-18,Jacksonville,USA,-81.6557,30.3322,[-82.1557 29.8322 -81.1557 30.8322],2.432,1.602,3.325,2.442,2.182,1.588,2.826,2.211,224.0,522.0
2015-05-19,Jacksonville,USA,-81.6557,30.3322,[-82.1557 29.8322 -81.1557 30.8322],2.31,1.609,3.062,2.366,2.197,1.612,2.82,2.229,251.0,506.0
2015-05-20,Jacksonville,USA,-81.6557,30.3322,[-82.1557 29.8322 -81.1557 30.8322],2.092,1.527,2.851,2.139,2.144,1.56,2.781,2.191,225.0,515.0
2015-05-21,Jacksonville,USA,-81.6557,30.3322,[-82.1557 29.8322 -81.1557 30.8322],2.092,1.573,2.826,2.151,2.089,1.548,2.742,2.156,228.0,511.0
2015-05-22,Jacksonville,USA,-81.6557,30.3322,[-82.1557 29.8322 -81.1557 30.8322],2.137,1.573,2.868,2.2,2.139,1.547,2.849,2.214,249.0,524.0
2015-05-23,Jacksonville,USA,-81.6557,30.3322,[-82.1557 29.8322 -81.1557 30.8322],2.178,1.592,2.881,2.239,2.127,1.556,2.809,2.188,249.0,516.0
2015-05-24,Jacksonville,USA,-81.6557,30.3322,[-82.1557 29.8322 -81.1557 30.8322],2.192,1.592,2.891,2.266,2.133,1.519,2.816,2.177,251.0,511.0
2015-05-25,Jacksonville,USA,-81.6557,30.3322,[-82.1557 29.8322 -81.1557 30.8322],2.264,1.7,2.961,2.353,2.078,1.464,2.834,2.149,242.0,525.0
2015-05-26,Jacksonville,USA,-81.6557,30.3322,[-82.1557 29.8322 -81.1557 30.8322],2.264,1.7,2.961,2.353,2.072,1.477,2.812,2.146,242.0,501.0
2015-05-27,Jacksonville,USA,-81.6557,30.3322,[-82.1557 29.8322 -81.1557 30.8322],2.183,1.642,3.007,2.326,2.153,1.462,2.865,2.177,223.0,512.0
2015-05-28,Jacksonville,USA,-81.6557,30.3322,[-82.1557 29.8322 -81.1557 30.8322],2.261,1.7,3.027,2.375,2.179,1.487,2.863,2.195,213.0,503.0
2015-05-29,Jacksonville,USA,-81.6557,30.3322,[-82.1557 29.8322 -81.1557 30.8322],2.172,1.626,2.961,2.302,2.212,1.469,2.878,2.203,196.0,521.0
2015-05-30,Jacksonville,USA,-81.6557,30.3322,[-82.1557 29.8322 -81.1557 30.8322],2.211,1.693,3.007,2.363,2.257,1.541,2.887,2.245,193.0,513.0
2015-05-31,Jacksonville,USA,-81.6557,30.3322,[-82.1557 29.8322 -81.1557 30.8322],2.192,1.693,3.007,2.349,2.299,1.551,2.923,2.265,207.0,521.0
2015-06-01,Jacksonville,USA,-81.6557,30.3322,[-82.1557 29.8322 -81.1557 30.8322],2.261,1.667,3.015,2.403,2.327,1.558,2.9,2.281,230.0,551.0
2015-06-02,Jacksonville,USA,-81.6557,30.3322,[-82.1557 29.8322 -81.1557 30.8322],2.261,1.667,3.015,2.403,2.33,1.636,2.93,2.337,238.0,536.0
2015-06-03,Jacksonville,USA,-81.6557,30.3322,[-82.1557 29.8322 -81.1557 30.8322],2.44,1.639,3.163,2.497,2.323,1.582,2.919,2.299,211.0,545.0
2015-06-04,Jacksonville,USA,-81.6557,30.3322,[-82.1557 29.8322 -81.1557 30.8322],2.447,1.716,3.163,2.524,2.291,1.581,2.894,2.266,223.0,529.0
2015-06-05,Jacksonville,USA,-81.6557,30.3322,[-82.1557 29.8322 -81.1557 30.8322],2.701,1.938,3.38,2.721,2.381,1.666,2.929,2.313,189.0,539.0
2015-06-06,Jacksonville,USA,-81.6557,30.3322,[-82.1557 29.8322 -81.1557 30.8322],2.954,2.261,3.414,2.849,2.371,1.676,2.88,2.284,188.0,535.0
2015-06-07,Jacksonville,USA,-81.6557,30.3322,[-82.1557 29.8322 -81.1557 30.8322],2.875,2.117,3.38,2.749,2.293,1.556,2.905,2.214,216.0,549.0
2015-06-08,Jacksonville,USA,-81.6557,30.3322,[-82.1557 29.8322 -81.1557 30.8322],2.875,2.091,3.38,2.744,2.345,1.664,2.868,2.255,208.0,545.0
2015-06-09,Jacksonville,USA,-81.6557,30.3322,[-82.1557 29.8322 -81.1557 30.8322],2.875,2.056,3.385,2.73,2.319,1.688,2.864,2.268,223.0,542.0
2015-06-10,Jacksonville,USA,-81.6557,30.3322,[-82.1557 29.8322 -81.1557 30.8322],2.865,2.056,3.38,2.714,2.32,1.681,2.872,2.261,242.0,554.0
2015-06-11,Jacksonville,USA,-81.6557,30.3322,[-82.1557 29.8322 -81.1557 30.8322],2.598,1.89,3.261,2.623,2.14,1.536,2.7,2.151,261.0,531.0
2015-06-12,Jacksonville,USA,-81.6557,30.3322,[-82.1557 29.8322 -81.1557 30.8322],2.587,1.8,3.237,2.584,2.147,1.512,2.676,2.129,247.0,539.0
2015-06-13,Jacksonville,USA,-81.6557,30.3322,[-82.1557 29.8322 -81.1557 30.8322],2.391,1.778,3.113,2.469,2.091,1.526,2.653,2.102,269.0,532.0
2015-06-14,Jacksonville,USA,-81.6557,30.3322,[-82.1557 29.8322 -81.1557 30.8322],2.271,1.679,3.027,2.369,1.968,1.44,2.542,1.995,265.0,549.0
2015-06-15,Jacksonville,USA,-81.6557,30.3322,[-82.1557 29.8322 -81.1557 30.8322],2.279,1.742,3.027,2.369,1.865,1.204,2.487,1.86,264.0,540.0
2015-06-16,Jacksonville,USA,-81.6557,30.3322,[-82.1557 29.8322 -81.1557 30.8322],2.279,1.747,3.001,2.343,1.836,1.176,2.4,1.806,259.0,545.0
2015-06-17,Jacksonville,USA,-81.6557,30.3322,[-82.1557 29.8322 -81.1557 30.8322],2.346,1.768,3.034,2.372,1.904,1.152,2.407,1.813,272.0,548.0